Terminal Aerodrome Forecast
Issued by NWS Wakefield, VA

Home | Current Version | Previous Version | Text Only | Print | Product List | Glossary On
Versions: 1 2 3 4 5 6 7 8 9 10 11 12
000
FTUS41 KAKQ 290535
TAFSBY
TAF
KSBY 290535Z 2906/3006 00000KT P6SM SKC
     FM291400 17007KT P6SM SCT050
     FM292300 VRB02KT P6SM BKN250=

USA.gov is the U.S. government's official web portal to all federal, state and local government web resources and services.